Home > Weather > Örebro > Past weeks

Flag for Sweden Past Weather in Örebro, Sweden — Yesterday and Last 2 Weeks

Now
68 °F

Sunny.


Feels Like: 68 °F
Forecast: 51 / 69 °F
Wind: 5 mph from East

Location: Orebro Private

Current Time: Jun 29, 2016 at 8:19:32 PM

Latest Report: Jun 29, 2016 at 7:20 PM


Visibility: 10 mi

Pressure: 29.80 "Hg

Humidity: 49%

Dew Point: 48 °F

Location of ÖrebroLocation

Past Weather in Örebro — Graph

°F

Örebro Temperature Yesterday

Maximum temperature yesterday: 68 °F (at 1:50 PM)
Minimum temperature yesterday: 54 °F (at 2:20 AM)
Average temperature yesterday: 62 °F

High & Low Weather Summary for the Past Weeks

 TemperatureHumidityPressure
High81 °F (Jun 25, 6:50 PM)94% (Jun 17, 4:20 AM)30.18 "Hg (Jun 17, 4:20 AM)
Low48 °F (Jun 29, 3:50 AM)29% (Jun 15, 5:50 PM)29.45 "Hg (Jun 18, 2:50 AM)
Average63 °F68%29.85 "Hg
* Reported Jun 14 7:20 PM — Jun 29 7:20 PM, Örebro, Weather by CustomWeather, © 2016

Note: Actual official high and low records may vary slightly from our data, if they occured in-between our weather recording intervals... More about our weather records

Advertising

Örebro Weather History for the Previous 24 Hours

Scroll right to see more
 ConditionsComfort  
Time TempWeatherWind HumidityBarometerVisibility
7:20 PM
Wed, Jun 29
68 °FSunny.5 mph49%29.80 "Hg10 mi
6:50 PM68 °FPassing clouds.5 mph49%29.80 "HgN/A
6:20 PM68 °FSunny.3 mph46%29.80 "Hg10 mi
5:50 PM70 °FPassing clouds.7 mph43%29.80 "HgN/A
5:20 PM70 °FPassing clouds.7 mph40%29.83 "HgN/A
4:50 PM70 °FSunny.8 mph43%29.83 "Hg10 mi
4:20 PM70 °FSunny.3 mph38%29.83 "Hg10 mi
3:50 PM70 °FPassing clouds.5 mph35%29.83 "HgN/A
3:20 PM70 °FSunny.5 mph38%29.83 "Hg10 mi
2:50 PM72 °FPassing clouds.5 mph36%29.86 "HgN/A
2:20 PM70 °FPassing clouds.5 mph40%29.86 "HgN/A
1:50 PM70 °FPassing clouds.5 mph38%29.86 "HgN/A
1:20 PM68 °FPassing clouds.5 mph40%29.86 "HgN/A
12:50 PM68 °FPassing clouds.7 mph43%29.89 "HgN/A
12:20 PM68 °FPassing clouds.6 mph38%29.89 "HgN/A
11:50 AM68 °FPassing clouds.7 mph40%29.89 "HgN/A
11:20 AM68 °FPassing clouds.6 mph43%29.89 "HgN/A
10:20 AM64 °FPassing clouds.8 mph49%29.89 "HgN/A
9:50 AM64 °FPassing clouds.6 mph49%29.89 "HgN/A
9:20 AM64 °FSunny.7 mph56%29.92 "Hg10 mi
8:50 AM63 °FPassing clouds.5 mph59%29.92 "HgN/A
8:20 AM61 °FPassing clouds.5 mph68%29.92 "HgN/A
7:50 AM61 °FPassing clouds.6 mph72%29.92 "HgN/A
7:20 AM57 °FPassing clouds.5 mph77%29.92 "HgN/A
6:50 AM55 °FSunny.5 mph77%29.92 "Hg10 mi
6:20 AM54 °FSunny.3 mph82%29.92 "Hg10 mi
5:50 AM50 °FSunny.5 mph88%29.92 "Hg10 mi
5:20 AM48 °FSunny.5 mph87%29.92 "Hg10 mi
4:50 AM48 °FCool.5 mph87%29.92 "HgN/A
4:20 AM48 °FCool.6 mph87%29.92 "Hg4 mi
3:50 AM48 °FCool.5 mph87%29.92 "HgN/A
3:20 AM50 °FCool.6 mph82%29.92 "HgN/A
2:50 AM50 °FCool.6 mph82%29.92 "HgN/A
2:20 AM50 °FCool.5 mph88%29.92 "HgN/A
1:50 AM50 °FCool.6 mph88%29.92 "HgN/A
1:20 AM52 °FCool.6 mph82%29.92 "HgN/A
12:20 AM54 °FClear.5 mph77%29.92 "Hg10 mi
11:50 PM
Tue, Jun 28
57 °FClear.7 mph67%29.89 "Hg10 mi
11:20 PM57 °FClear.7 mph67%29.89 "Hg10 mi
10:50 PM59 °FSunny.8 mph63%29.89 "Hg10 mi
10:20 PM59 °FSunny.8 mph63%29.89 "Hg10 mi
9:50 PM61 °FSunny.9 mph59%29.89 "Hg10 mi
9:20 PM63 °FSunny.8 mph52%29.89 "Hg10 mi
8:50 PM63 °FSunny.12 mph52%29.89 "Hg10 mi
8:20 PM64 °FSunny.14 mph49%29.89 "Hg10 mi
Weather by CustomWeather, © 2016

See weather overviewHow to use our weather pages